Regional Weather Roundup
Issued by NWS State College, PA

Home | Current Version | Previous Version | Text Only | Print | Product List | Glossary On
Versions: 1 2 3 4 5 6 7 8 9 10 11 12 13 14 15 16 17 18 19 20 21 22 23 24 25 26 27 28 29 30 31 32 33 34 35 36 37 38 39 40 41 42 43 44 45 46 47 48 49 50
000
ASUS41 KCTP 051110
RWRCTP

REGIONAL WEATHER ROUNDUP
NATIONAL WEATHER SERVICE STATE COLLEGE PA
700 AM EDT TUE MAY 05 2015

Note: "fair" indicates few or no clouds below 12,000 feet with no
significant weather and/or obstructions to visibility.

* = STATION THAT DOES NOT REPORT PRECIPITATION /E.G. RAIN...SNOW...ETC/
    THUNDER OR FOG.

PAZ002>004-007>009-013>016-020>023-029>032-051200-
WESTERN PENNSYLVANIA

CITY           SKY/WX    TMP DP  RH WIND       PRES   REMARKS
ERIE           CLOUDY    54  53  97 CALM      30.25R FOG
MEADVILLE      FOG       57  55  93 E5        30.26R VSB 1/2
FRANKLIN*      CLOUDY    55  52  88 CALM      30.28R VSB 1
NEW CASTLE     LGT RAIN  55  55 100 CALM      30.27R VSB<1/4
BEAVER COUNTY  NOT AVBL
BUTLER*        CLOUDY    55  55 100 CALM      30.27R VSB 1
PITTSBURGH INT LGT RAIN  61  58  90 SW3       30.25R
PITTSBURGH     CLOUDY    62  54  74 S6        30.25R
INDIANA*       CLEAR     59  57  94 CALM      30.29R
LATROBE        CLOUDY    59  59 100 CALM      30.27R
WASHINGTON CO* CLOUDY    59  57  94 CALM      30.28R
$$

PAZ004>006-010>012-017>019-024>028-033>037-041-042-045-046-049>053-051200-
CENTRAL PENNSYLVANIA

CITY           SKY/WX    TMP DP  RH WIND       PRES   REMARKS
BRADFORD       CLOUDY    57  55  93 CALM      30.28R FOG
DUBOIS         FOG       59  56  89 N3        30.26S VSB 1
CLEARFIELD     MOCLDY    57  54  89 CALM      30.27R
JOHNSTOWN      MOCLDY    59  53  80 CALM      30.28R
ALTOONA        CLOUDY    60  54  80 CALM      30.26R
STATE COLLEGE  CLEAR     63  55  77 CALM      30.26R
WILLIAMSPORT   MOCLDY    62  55  77 NW3       30.22R
SELINSGROVE    MOCLDY    66  56  70 NW8       30.23R
FT INDIANTOWN  CLOUDY    58  52  81 CALM      30.22R
CAPITAL CITY   LGT RAIN  62  52  69 CALM      30.22R
HARRISBURG     CLOUDY    63  54  72 CALM      30.21R
YORK           LGT RAIN  57  53  86 CALM      30.23R
$$

PAZ038>040-043-044-047-048-054-055-060>062-067>071-051200-
EASTERN PENNSYLVANIA

CITY           SKY/WX    TMP DP  RH WIND       PRES   REMARKS
SCRANTON       PTSUNNY   67  54  63 N9        30.22R
MOUNT POCONO   MOSUNNY   61  51  70 NW6       30.22R
ALLENTOWN      MOSUNNY   58  51  78 CALM      30.20R
QUAKERTOWN*    MOSUNNY   55  50  82 CALM      30.21R
READING        PTSUNNY   62  51  67 CALM      30.20R
LANCASTER      PTSUNNY   58  53  84 CALM      30.21R
COATESVILLE    SUNNY     59  54  82 W5        30.22R
POTTSTOWN      MOSUNNY   58  53  84 CALM      30.21R
BLUE BELL      SUNNY     63  54  72 SW3       30.19R
DOYLESTOWN     MOSUNNY   59  52  77 SW3       30.19R
WILLOW GROVE   NOT AVBL
NORTH PHILA    SUNNY     66  51  58 SW8       30.21R
PHILADELPHIA   MOSUNNY   65  53  65 SW9       30.21R
$$



USA.gov is the U.S. government's official web portal to all federal, state and local government web resources and services.